Ely, MN

3:07 PM CDT on April 25, 2017 (GMT -0500)
Ely Municipal

Weather History for KELO - October, 2013

Change the Weather History Date:

Wednesday, October 23, 2013

  Actual Average Record
Temperature  
Mean Temperature 30 °F -  
Max Temperature 33 °F 46 °F 69 °F (1998)
Min Temperature 28 °F 31 °F 24 °F (1997)
Degree Days  
Heating Degree Days 34    
Moisture  
Dew Point 26 °F    
Average Humidity 86    
Maximum Humidity 93    
Minimum Humidity 69    
Precipitation  
Precipitation 0.00 in - - ()
Sea Level Pressure  
Sea Level Pressure 29.92 in    
Wind  
Wind Speed 6 mph (NW)    
Max Wind Speed 14 mph    
Max Gust Speed 20 mph    
Visibility 10 miles    
Events      
Averages and records for this station are not official NWS values.
T = Trace of Precipitation, MM = Missing Value Source: NWS Daily Summary

Daily Weather History Graph

Daily Weather History Graph

Search for Another Location

Airport or City:

Trip Planner

Search our weather history database for the weather conditions in past years. The results will help you decide how hot, cold, wet, or windy it might be!

Date:

Astronomy

Oct. 23, 2013 Rise Set
Actual Time 7:38 AM CDT 6:03 PM CDT
Civil Twilight 7:06 AM CDT 6:35 PM CDT
Nautical Twilight 6:30 AM CDT 7:11 PM CDT
Astronomical Twilight 5:55 AM CDT 7:47 PM CDT
Moon 9:24 PM CDT (10/23) 12:07 PM CDT (10/23)
Length of Visible Light 11h 28m
Length of Day
10h 25m
Waning Gibbous, 79% of the Moon is Illuminated
Oct 23
Waning Gibbous
Oct 26
Last Quarter
Nov 3
New
Nov 9
First Quarter
Nov 17
Full

Hourly Weather History & Observations

Time (CDT) Temp. Windchill Dew Point Humidity Pressure Visibility Wind Dir Wind Speed Gust Speed Precip Events Conditions
12:13 AM 30.2 °F 24.3 °F 26.6 °F 86% 29.90 in - West 5.8 mph - N/A   Overcast
12:33 AM - - - N/A% 29.90 in - West 3.5 mph - N/A   Unknown
12:53 AM - - - N/A% 29.89 in - West 3.5 mph - N/A   Unknown
1:13 AM - - - N/A% 29.89 in - West 5.8 mph - N/A   Unknown
1:33 AM - - - N/A% 29.89 in - WNW 4.6 mph - N/A   Unknown
1:53 AM - - - N/A% - - North - - N/A   Unknown
2:12 AM 30.2 °F 25.4 °F 28.4 °F 93% 29.89 in - WNW 4.6 mph - N/A   Unknown
2:33 AM 30.2 °F 24.3 °F 28.4 °F 93% 29.89 in - WNW 5.8 mph - N/A   Overcast
2:52 AM 30.2 °F 25.4 °F 28.4 °F 93% 29.89 in - WNW 4.6 mph - N/A   Overcast
3:13 AM 30.2 °F 23.4 °F 28.4 °F 93% 29.88 in - WNW 6.9 mph - N/A   Overcast
3:33 AM 30.2 °F 24.3 °F 28.4 °F 93% 29.88 in - WNW 5.8 mph - N/A   Overcast
3:53 AM 30.2 °F 24.3 °F 26.6 °F 86% 29.88 in - NNW 5.8 mph - N/A   Unknown
4:12 AM 28.4 °F 22.2 °F 26.6 °F 93% 29.88 in - NW 5.8 mph - N/A   Unknown
4:33 AM 28.4 °F 24.6 °F 26.6 °F 93% 29.88 in - NW 3.5 mph - N/A   Unknown
4:53 AM 28.4 °F 23.3 °F 26.6 °F 93% 29.88 in - WNW 4.6 mph - N/A   Unknown
5:13 AM - - - N/A% 29.88 in - Calm Calm - N/A   Unknown
5:33 AM - - - N/A% 29.88 in - Calm Calm - N/A   Unknown
5:53 AM 28.4 °F 24.6 °F 26.6 °F 93% 29.88 in - NW 3.5 mph - N/A   Overcast
6:13 AM 28.4 °F - 26.6 °F 93% 29.89 in - Calm Calm - N/A   Unknown
6:33 AM 28.4 °F 24.6 °F 26.6 °F 93% 29.89 in - West 3.5 mph - N/A   Unknown
6:53 AM 28.4 °F 23.3 °F 26.6 °F 93% 29.89 in - West 4.6 mph - N/A   Unknown
7:13 AM 28.4 °F 24.6 °F 26.6 °F 93% 29.89 in - WNW 3.5 mph - N/A   Unknown
7:33 AM 28.4 °F 23.3 °F 26.6 °F 93% 29.90 in - WNW 4.6 mph - N/A   Unknown
7:53 AM - - - N/A% 29.89 in - Calm Calm - N/A   Unknown
8:13 AM - - - N/A% 29.90 in - WNW 3.5 mph - N/A   Unknown
8:33 AM 28.4 °F 20.4 °F 26.6 °F 93% 29.90 in - WNW 8.1 mph - N/A   Overcast
8:52 AM 30.2 °F 24.3 °F 26.6 °F 86% 29.90 in - NW 5.8 mph - N/A   Overcast
9:13 AM - - - N/A% 29.90 in - NW 4.6 mph - N/A   Unknown
9:33 AM 30.2 °F 25.4 °F 26.6 °F 86% 29.90 in - WNW 4.6 mph - N/A   Overcast
9:52 AM 30.2 °F 22.6 °F 26.6 °F 86% 29.90 in - WNW 8.1 mph - N/A   Overcast
10:13 AM 30.2 °F 22.6 °F 26.6 °F 86% 29.90 in - WNW 8.1 mph 16.1 mph N/A   Overcast
10:33 AM 30.2 °F 22.6 °F 26.6 °F 86% 29.90 in - NW 8.1 mph 17.3 mph N/A   Overcast
10:53 AM 30.2 °F 21.3 °F 26.6 °F 86% 29.91 in - NW 10.4 mph 17.3 mph N/A   Unknown
11:13 AM 30.2 °F 24.3 °F 26.6 °F 86% 29.91 in - NNW 5.8 mph - N/A   Overcast
11:33 AM 30.2 °F 19.8 °F 24.8 °F 80% 29.91 in - NW 13.8 mph 18.4 mph N/A   Overcast
11:53 AM 32.0 °F 24.2 °F 24.8 °F 75% 29.91 in - NNW 9.2 mph - N/A   Overcast
12:13 PM 32.0 °F 23.0 °F 24.8 °F 75% 29.91 in - NW 11.5 mph 16.1 mph N/A   Overcast
12:33 PM 32.0 °F 25.6 °F 24.8 °F 75% 29.91 in - WNW 6.9 mph 17.3 mph N/A   Overcast
12:53 PM 30.2 °F 20.8 °F 26.6 °F 86% 29.91 in - WNW 11.5 mph - N/A   Unknown
1:12 PM 33.8 °F 27.0 °F 24.8 °F 70% 29.91 in - WNW 8.1 mph - N/A   Overcast
1:33 PM 30.2 °F 20.8 °F 24.8 °F 80% 29.92 in - NNW 11.5 mph 18.4 mph N/A   Overcast
1:53 PM 30.2 °F 20.8 °F 23.0 °F 75% 29.92 in - NW 11.5 mph 18.4 mph N/A   Overcast
2:12 PM 30.2 °F 22.6 °F 23.0 °F 75% 29.92 in - NNW 8.1 mph - N/A   Overcast
2:33 PM 30.2 °F 22.6 °F 23.0 °F 75% 29.92 in - NW 8.1 mph - N/A   Overcast
2:53 PM 30.2 °F 24.3 °F 23.0 °F 75% 29.92 in - NW 5.8 mph - N/A   Overcast
3:13 PM 32.0 °F 24.2 °F 23.0 °F 69% 29.92 in - NNW 9.2 mph 19.6 mph N/A   Overcast
3:33 PM 32.0 °F 24.8 °F 23.0 °F 69% 29.93 in - NW 8.1 mph 18.4 mph N/A   Overcast
3:53 PM 32.0 °F 24.2 °F 23.0 °F 69% 29.93 in - NW 9.2 mph - N/A   Overcast
4:13 PM 32.0 °F 24.8 °F 24.8 °F 75% 29.94 in - NNW 8.1 mph - N/A   Overcast
4:33 PM 30.2 °F 23.4 °F 26.6 °F 86% 29.94 in - NW 6.9 mph 16.1 mph N/A   Overcast
4:53 PM 30.2 °F 25.4 °F 26.6 °F 86% 29.94 in - WNW 4.6 mph - N/A   Unknown
5:13 PM 30.2 °F 23.4 °F 26.6 °F 86% 29.94 in - NW 6.9 mph - N/A   Overcast
5:33 PM 30.2 °F 23.4 °F 28.4 °F 93% 29.94 in - WNW 6.9 mph - N/A   Unknown
5:53 PM 30.2 °F 24.3 °F 28.4 °F 93% 29.95 in - WNW 5.8 mph - N/A   Unknown
6:11 PM 30.2 °F 24.3 °F 28.4 °F 93% 29.95 in - West 5.8 mph - N/A   Unknown
6:33 PM - - - N/A% 29.95 in - WNW 5.8 mph - N/A   Unknown
6:53 PM - - - N/A% 29.95 in - WNW 6.9 mph - N/A   Unknown
7:13 PM - - - N/A% 29.96 in - NW 4.6 mph - N/A   Unknown
7:33 PM - - - N/A% 29.96 in - WNW 8.1 mph - N/A   Unknown
7:53 PM - - - N/A% - - North - - N/A   Unknown
8:13 PM - - - N/A% - - North - - N/A   Unknown
8:33 PM - - - N/A% - - North - - N/A   Unknown
8:53 PM 30.2 °F 24.3 °F 28.4 °F 93% 29.96 in 10.0 mi NW 5.8 mph - N/A   Overcast
9:12 PM 30.2 °F 26.7 °F 28.4 °F 93% 29.96 in 10.0 mi NW 3.5 mph - N/A   Overcast
9:33 PM 30.2 °F 24.3 °F 26.6 °F 86% 29.97 in - NNW 5.8 mph - N/A   Unknown
9:53 PM 30.2 °F 26.7 °F 26.6 °F 86% 29.97 in - NW 3.5 mph - N/A   Unknown
10:13 PM 30.2 °F 24.3 °F 26.6 °F 86% 29.98 in 10.0 mi NW 5.8 mph - N/A   Overcast
10:33 PM 30.2 °F 24.3 °F 26.6 °F 86% 29.98 in - NW 5.8 mph - N/A   Unknown
10:53 PM 30.2 °F 25.4 °F 26.6 °F 86% 29.98 in - NW 4.6 mph - N/A   Unknown
11:13 PM 30.2 °F 24.3 °F 26.6 °F 86% 29.98 in - NW 5.8 mph - N/A   Overcast
11:32 PM 30.2 °F 24.3 °F 26.6 °F 86% 29.98 in 10.0 mi NNW 5.8 mph - N/A   Overcast
11:53 PM 30.2 °F 24.3 °F 26.6 °F 86% 29.98 in 10.0 mi NNW 5.8 mph - N/A   Overcast